| time (UTC) | temp F | wind direction | speed MPH | gust MPH | rain 1hr in | rain 24hr in | rain mn in | humidity % | barometer mb |
| 20260504232645 | 76 | 190 | 2.0 | 2.0 | 0.00 | 0.00 | 0.00 | 43 | 1008.0 |
| 20260504231619 | 76 | 179 | 4.0 | 7.0 | 0.00 | 0.00 | 0.00 | 43 | 1008.0 |
| 20260504230650 | 77 | 183 | 2.0 | 4.0 | 0.00 | 0.00 | 0.00 | 42 | 1008.1 |
| 20260504225623 | 77 | 132 | 4.0 | 6.0 | 0.00 | 0.00 | 0.00 | 42 | 1008.3 |
| 20260504224637 | 78 | 170 | 4.0 | 7.0 | 0.00 | 0.00 | 0.00 | 41 | 1008.4 |
| 20260504223627 | 78 | 184 | 1.0 | 1.0 | 0.00 | 0.00 | 0.00 | 41 | 1008.4 |
| 20260504222618 | 78 | 221 | 3.0 | 7.0 | 0.00 | 0.00 | 0.00 | 40 | 1008.2 |
| 20260504221628 | 79 | 165 | 5.0 | 7.0 | 0.00 | 0.00 | 0.00 | 41 | 1008.2 |
| 20260504220643 | 79 | 180 | 6.0 | 9.0 | 0.00 | 0.00 | 0.00 | 41 | 1008.4 |
| 20260504215618 | 80 | 205 | 3.0 | 6.0 | 0.00 | 0.00 | 0.00 | 40 | 1008.5 |
| 20260504214627 | 80 | 234 | 6.0 | 13.0 | 0.00 | 0.00 | 0.00 | 40 | 1008.5 |
| 20260504213621 | 80 | 229 | 7.0 | 10.0 | 0.00 | 0.00 | 0.00 | 42 | 1008.4 |
| 20260504212629 | 81 | 191 | 3.0 | 6.0 | 0.00 | 0.00 | 0.00 | 41 | 1008.6 |
| 20260504211623 | 81 | 254 | 6.0 | 10.0 | 0.00 | 0.00 | 0.00 | 41 | 1008.6 |
| 20260504210618 | 81 | 103 | 4.0 | 7.0 | 0.00 | 0.00 | 0.00 | 41 | 1008.7 |
| 20260504205626 | 80 | 196 | 6.0 | 11.0 | 0.00 | 0.00 | 0.00 | 40 | 1008.7 |
| 20260504204620 | 81 | 130 | 5.0 | 10.0 | 0.00 | 0.00 | 0.00 | 40 | 1008.8 |
| 20260504203629 | 82 | 210 | 6.0 | 10.0 | 0.00 | 0.00 | 0.00 | 39 | 1008.7 |
| 20260504202623 | 82 | 233 | 10.0 | 18.0 | 0.00 | 0.00 | 0.00 | 39 | 1008.9 |
| 20260504201617 | 81 | 152 | 6.0 | 11.0 | 0.00 | 0.00 | 0.00 | 40 | 1008.8 |
| 20260504200627 | 81 | 199 | 4.0 | 10.0 | 0.00 | 0.00 | 0.00 | 40 | 1008.9 |
| 20260504195620 | 81 | 228 | 2.0 | 6.0 | 0.00 | 0.00 | 0.00 | 43 | 1009.2 |
| 20260504194629 | 80 | 181 | 6.0 | 10.0 | 0.00 | 0.00 | 0.00 | 41 | 1009.4 |
| 20260504193624 | 81 | 183 | 3.0 | 8.0 | 0.00 | 0.00 | 0.00 | 42 | 1009.4 |
| 20260504192618 | 80 | 193 | 4.0 | 6.0 | 0.00 | 0.00 | 0.00 | 44 | 1009.6 |
| 20260504191708 | 80 | 240 | 8.0 | 15.0 | 0.00 | 0.00 | 0.00 | 44 | 1009.5 |
| 20260504190622 | 80 | 149 | 5.0 | 11.0 | 0.00 | 0.00 | 0.00 | 45 | 1010.0 |
| 20260504185616 | 79 | 213 | 4.0 | 7.0 | 0.00 | 0.00 | 0.00 | 44 | 1010.0 |
| 20260504184625 | 80 | 108 | 3.0 | 6.0 | 0.00 | 0.00 | 0.00 | 44 | 1010.2 |
| 20260504183619 | 79 | 124 | 5.0 | 10.0 | 0.00 | 0.00 | 0.00 | 44 | 1010.3 |
| 20260504182629 | 80 | 112 | 4.0 | 7.0 | 0.00 | 0.00 | 0.00 | 44 | 1010.5 |
| 20260504181624 | 79 | 318 | 1.0 | 2.0 | 0.00 | 0.00 | 0.00 | 45 | 1010.8 |
| 20260504180618 | 80 | 301 | 4.0 | 6.0 | 0.00 | 0.00 | 0.00 | 44 | 1010.8 |
| 20260504175628 | 79 | 275 | 3.0 | 4.0 | 0.00 | 0.00 | 0.00 | 44 | 1010.8 |
| 20260504174622 | 79 | 319 | 1.0 | 2.0 | 0.00 | 0.00 | 0.00 | 45 | 1010.9 |
| 20260504173617 | 79 | 91 | 1.0 | 1.0 | 0.00 | 0.00 | 0.00 | 46 | 1011.1 |
| 20260504172626 | 79 | 178 | 3.0 | 7.0 | 0.00 | 0.00 | 0.00 | 47 | 1011.1 |
| 20260504171621 | 79 | 222 | 3.0 | 4.0 | 0.00 | 0.00 | 0.00 | 47 | 1011.3 |
| 20260504170616 | 79 | 113 | 2.0 | 6.0 | 0.00 | 0.00 | 0.00 | 47 | 1011.4 |
| 20260504150625 | 75 | 246 | 4.0 | 6.0 | 0.00 | 0.00 | 0.00 | 55 | 1012.1 |
| 20260504140620 | 68 | 203 | 3.0 | 6.0 | 0.00 | 0.00 | 0.00 | 66 | 1012.6 |
| 20260504130625 | 59 | 109 | 1.0 | 2.0 | 0.00 | 0.00 | 0.00 | 76 | 1012.8 |
| 20260504110618 | 46 | 303 | 1.0 | 2.0 | 0.00 | 0.00 | 0.00 | 86 | 1012.1 |
| 20260504081647 | 49 | 0.0 | 0.0 | 0.00 | 0.00 | 0.00 | 81 | 1011.9 | |
| 20260504080640 | 49 | 0.0 | 0.0 | 0.00 | 0.00 | 0.00 | 81 | 1011.9 | |
| 20260504050617 | 52 | 0.0 | 0.0 | 0.00 | 0.00 | 0.00 | 76 | 1012.9 | |
| 20260504045726 | 52 | 0.0 | 0.0 | 0.00 | 0.00 | 0.00 | 76 | 1013.0 | |
| 20260504044620 | 53 | 0.0 | 0.0 | 0.00 | 0.00 | 0.00 | 75 | 1013.0 | |
| 20260504043649 | 53 | 279 | 0.0 | 1.0 | 0.00 | 0.00 | 0.00 | 74 | 1013.2 |
| 20260504042623 | 53 | 279 | 0.0 | 1.0 | 0.00 | 0.00 | 0.00 | 74 | 1013.2 |
| 20260504041616 | 53 | 0.0 | 0.0 | 0.00 | 0.00 | 0.00 | 73 | 1013.4 | |
| 20260504040625 | 54 | 0.0 | 0.0 | 0.00 | 0.00 | 0.00 | 73 | 1013.1 | |
| 20260504035619 | 55 | 0.0 | 0.0 | 0.00 | 0.00 | 0.00 | 73 | 1013.5 | |
| 20260504034628 | 55 | 0.0 | 0.0 | 0.00 | 0.00 | 0.00 | 72 | 1013.5 | |
| 20260504033702 | 55 | 0.0 | 0.0 | 0.00 | 0.00 | 0.00 | 71 | 1013.6 | |
| 20260504032630 | 55 | 0.0 | 0.0 | 0.00 | 0.00 | 0.00 | 71 | 1013.4 | |
| 20260504031624 | 55 | 0.0 | 0.0 | 0.00 | 0.00 | 0.00 | 70 | 1013.6 | |
| 20260504030619 | 55 | 0.0 | 0.0 | 0.00 | 0.00 | 0.00 | 69 | 1013.3 | |
| 20260504025629 | 56 | 0.0 | 0.0 | 0.00 | 0.00 | 0.00 | 69 | 1013.6 | |
| 20260504024623 | 56 | 0.0 | 0.0 | 0.00 | 0.00 | 0.00 | 68 | 1013.4 | |
| 20260504023637 | 57 | 0.0 | 0.0 | 0.00 | 0.00 | 0.00 | 67 | 1013.2 | |
| 20260504022626 | 58 | 279 | 1.0 | 1.0 | 0.00 | 0.00 | 0.00 | 67 | 1013.0 |
| 20260504021620 | 58 | 0.0 | 0.0 | 0.00 | 0.00 | 0.00 | 66 | 1013.2 | |
| 20260504020630 | 58 | 0.0 | 0.0 | 0.00 | 0.00 | 0.00 | 64 | 1013.0 | |
| 20260504015624 | 59 | 0.0 | 0.0 | 0.00 | 0.00 | 0.00 | 64 | 1012.9 | |
| 20260504014619 | 59 | 0.0 | 0.0 | 0.00 | 0.00 | 0.00 | 63 | 1012.8 | |
| 20260504013629 | 60 | 0.0 | 0.0 | 0.00 | 0.00 | 0.00 | 62 | 1012.7 | |
| 20260504012624 | 61 | 0.0 | 0.0 | 0.00 | 0.00 | 0.00 | 60 | 1012.6 | |
| 20260504011617 | 61 | 0.0 | 0.0 | 0.00 | 0.00 | 0.00 | 58 | 1012.6 | |
| 20260504010627 | 62 | 0.0 | 0.0 | 0.00 | 0.00 | 0.00 | 57 | 1012.6 | |
| 20260504005622 | 62 | 0.0 | 0.0 | 0.00 | 0.00 | 0.00 | 54 | 1012.6 | |
| 20260504004617 | 63 | 0.0 | 0.0 | 0.00 | 0.00 | 0.00 | 53 | 1012.3 | |
| 20260504003627 | 65 | 0.0 | 0.0 | 0.00 | 0.00 | 0.00 | 51 | 1012.5 | |
| 20260504002622 | 66 | 0.0 | 0.0 | 0.00 | 0.00 | 0.00 | 49 | 1012.2 | |
| 20260504001616 | 67 | 278 | 2.0 | 2.0 | 0.00 | 0.00 | 0.00 | 46 | 1012.3 |
| 20260504000626 | 67 | 279 | 2.0 | 4.0 | 0.00 | 0.00 | 0.00 | 45 | 1012.1 |
| 20260503235620 | 68 | 342 | 2.0 | 3.0 | 0.00 | 0.00 | 0.00 | 43 | 1012.1 |
| 20260503234615 | 69 | 290 | 2.0 | 3.0 | 0.00 | 0.00 | 0.00 | 42 | 1011.9 |
| 20260503233625 | 69 | 289 | 4.0 | 6.0 | 0.00 | 0.00 | 0.00 | 41 | 1012.0 |